Flag for U.S.A. Weather past 2 weeks in Flint, Michigan, U.S.A.

Now
75 °F

Partly sunny.


Feels Like: 78 °F
Forecast: 58 / 76 °F
Wind: 12 mph from Northeast

Location: Bishop International Airport

Current Time: Jul 23, 2014 at 4:34:35 PM

Latest Report: Jul 23, 2014 at 3:53 PM


Visibility: 10 mi

Pressure: 30.05 "Hg

Humidity: 50%

Dew point: 55 °F

Location of FlintLocation

Historic Weather in Flint — Graph

°F

Flint temperature yesterday

Maximum temperature yesterday: 86 °F (at 12:53 PM)
Minimum temperature yesterday: 65 °F (at 3:53 AM)
Average temperature yesterday: 76 °F

Past Weeks' High & Low Weather Summary

 TemperatureHumidityPressure
High86 °F (Jul 21, 3:53 PM)93% (Jul 21, 3:53 AM)30.24 "Hg (Jul 21, 3:53 AM)
Low52 °F (Jul 17, 6:53 AM)36% (Jul 14, 12:53 PM)29.57 "Hg (Jul 8, 2:53 PM)
Average70 °F66%30.01 "Hg
* Reported Jul 8 2:53 PM — Jul 23 2:53 PM, Flint, Weather by CustomWeather, © 2014

Note: Actual official high and low records may vary slightly from our data, if they occured in-between our weather recording intervals... More about our weather records

Advertising

Flint weather history for previous 24 hours

 ConditionsComfort  
Time TempWeatherWind HumidityBarometerVisibility
2:53 PM
Jul 23
73 °FOvercast.14 mph53%30.07 "Hg10 mi
1:53 PM71 °FOvercast.12 mph57%30.07 "Hg10 mi
12:53 PM69 °FOvercast.14 mph61%30.06 "Hg10 mi
11:53 AM69 °FOvercast.14 mph61%30.06 "Hg10 mi
10:53 AM68 °FOvercast.14 mph65%30.03 "Hg10 mi
9:53 AM68 °FOvercast.10 mph65%30.02 "Hg10 mi
8:53 AM66 °FOvercast.16 mph73%30.02 "Hg10 mi
7:53 AM65 °FOvercast.12 mph76%30.03 "Hg10 mi
6:53 AM65 °FOvercast.13 mph76%30.03 "Hg10 mi
5:53 AM66 °FOvercast.14 mph75%30.00 "Hg10 mi
4:53 AM70 °FMostly cloudy.13 mph76%29.96 "Hg10 mi
3:53 AM74 °FPassing clouds.14 mph76%29.89 "Hg10 mi
1:53 AM80 °FPassing clouds.9 mph67%29.91 "Hg8 mi
12:53 AM80 °FPassing clouds.8 mph64%29.91 "Hg8 mi
11:53 PM
Jul 22
81 °FPartly cloudy.6 mph62%29.91 "Hg8 mi
10:53 PM82 °FOvercast.7 mph60%29.91 "Hg8 mi
9:53 PM83 °FOvercast.7 mph59%29.90 "Hg8 mi
8:53 PM83 °FPartly sunny.9 mph59%29.92 "Hg7 mi
7:53 PM85 °FSunny.7 mph55%29.92 "Hg8 mi
Weather by CustomWeather, © 2014

See weather overviewHow to use our weather pages